Date String (YYYY-MM-DD hh:mm:ss) UTC,Instrument flags,Ambient pressure (hPa),Sample flow (lpm),Bypass flow (lpm),Sample temperature (°C),Ambient temperature (°C),ASC tube jacket temperature (°C),LED temperature (°C),Box temperature (°C),Sample RH (%),Span deviation,Mass concentration (μg/m³),Mass concentration (μg/m³),Mass concentration (μg/m³)
DateTimeUTC,F1_M11,P_M11,Q1_M11,Q2_M11,T1_M11,T2_M11,T3_M11,T4_M11,T5_M11,U1_M11,ZSPAN_M11,X0_M11,X2_M11,X1_M11
2023-03-08 02:00:00,,0826.8,4.99,0.00,22.3,22.1,00.0,31.0,24.1,12.8,-001.3,0009.93,0006.98,0006.55
2023-03-08 02:01:00,,0826.8,5.02,0.00,22.3,21.5,00.0,31.0,24.0,12.8,-001.4,0009.94,0006.98,0006.55
2023-03-08 02:02:00,,0827.1,4.99,0.00,22.2,21.1,00.0,31.0,23.7,12.9,-001.8,0009.95,0006.98,0006.56
2023-03-08 02:03:00,,0827.1,5.01,0.00,22.1,20.7,00.0,31.0,23.6,12.9,-001.7,0009.91,0006.98,0006.56
2023-03-08 02:04:00,,0827.2,5.00,0.00,22.0,20.4,00.0,30.9,23.5,13.0,-001.8,0009.78,0007.00,0006.56
2023-03-08 02:05:00,,0827.2,4.99,0.00,22.0,20.2,00.0,30.9,23.4,13.0,-001.1,0009.67,0006.99,0006.55
2023-03-08 02:06:00,,0826.9,5.00,0.00,21.9,20.0,00.0,30.9,23.3,13.1,-000.6,0009.67,0006.98,0006.54
2023-03-08 02:07:00,,0827.3,5.01,0.00,21.8,19.9,00.0,30.8,23.3,13.2,-000.4,0009.75,0006.98,0006.55
2023-03-08 02:08:00,,0826.9,5.00,0.00,21.8,19.8,00.0,30.8,23.2,13.2,-000.3,0009.82,0007.01,0006.56
2023-03-08 02:09:00,,0827.1,5.00,0.00,21.7,19.7,00.0,30.7,23.1,13.3,-000.4,0009.86,0007.03,0006.59
2023-03-08 02:10:00,,0827.1,4.99,0.00,21.7,20.6,00.0,30.7,23.4,13.3,-000.4,0009.82,0007.00,0006.58
2023-03-08 02:11:00,,0826.9,4.99,0.00,21.9,21.7,00.0,30.7,23.7,13.2,0000.2,0009.65,0006.97,0006.59
2023-03-08 02:12:00,,0826.9,5.01,0.00,22.0,22.5,00.0,30.7,24.0,13.1,-000.2,0009.71,0006.99,0006.59
2023-03-08 02:13:00,,0826.9,4.98,0.00,22.1,22.4,00.0,30.8,24.0,13.0,-000.2,0009.77,0007.01,0006.58
2023-03-08 02:14:00,,0826.9,5.02,0.00,22.0,21.6,00.0,30.8,23.7,13.1,-000.5,0009.75,0007.02,0006.59
2023-03-08 02:15:00,,0826.9,5.01,0.00,22.0,21.1,00.0,30.8,23.5,13.1,-000.2,0009.57,0006.99,0006.58
2023-03-08 02:16:00,,0826.9,5.01,0.00,21.9,20.5,00.0,30.8,23.3,13.2,-001.1,0009.57,0006.97,0006.59
2023-03-08 02:17:00,,0826.9,5.00,0.00,21.8,20.2,00.0,30.7,23.1,13.4,-001.0,0009.65,0007.02,0006.62
2023-03-08 02:18:00,,0826.9,5.00,0.00,21.7,19.9,00.0,30.7,23.1,13.7,-001.2,0009.78,0007.10,0006.66
2023-03-08 02:19:00,,0826.9,5.00,0.00,21.6,19.7,00.0,30.6,22.9,13.9,-001.2,0009.91,0007.17,0006.70
2023-03-08 02:20:00,,0826.9,5.00,0.00,21.5,19.5,00.0,30.6,22.8,14.1,-001.6,0010.04,0007.23,0006.74
2023-03-08 02:21:00,,0826.9,5.01,0.00,21.5,19.3,00.0,30.5,22.7,14.1,-001.5,0010.30,0007.30,0006.80
2023-03-08 02:22:00,,0826.9,4.99,0.00,21.4,20.0,00.0,30.5,22.9,14.1,-001.7,0011.02,0007.33,0006.83
2023-03-08 02:23:00,,0826.9,4.94,0.00,21.6,21.2,00.0,30.5,23.4,14.0,-001.5,0011.10,0007.39,0006.88
2023-03-08 02:24:00,,0827.0,4.98,0.00,21.7,22.2,00.0,30.5,23.7,13.9,-001.2,0011.10,0007.43,0006.93
2023-03-08 02:25:00,,0826.9,4.98,0.00,21.9,22.5,00.0,30.5,23.8,13.7,0000.1,0011.08,0007.48,0007.00
2023-03-08 02:26:00,,0826.9,5.01,0.00,21.9,21.7,00.0,30.6,23.6,13.7,0000.3,0011.20,0007.56,0007.06
2023-03-08 02:27:00,,0827.0,5.01,0.00,21.8,21.0,00.0,30.6,23.4,13.7,0000.8,0011.22,0007.62,0007.12
2023-03-08 02:28:00,,0826.9,5.00,0.00,21.7,20.5,00.0,30.6,23.2,13.8,0000.8,0011.29,0007.67,0007.18
2023-03-08 02:29:00,,0827.0,5.00,0.00,21.6,20.2,00.0,30.6,23.1,13.9,0000.5,0011.22,0007.67,0007.20
2023-03-08 02:30:00,,0827.0,4.98,0.00,21.6,19.9,00.0,30.5,22.9,13.9,0000.9,0011.61,0007.66,0007.21
2023-03-08 02:31:00,,0827.0,4.99,0.00,21.5,19.7,00.0,30.5,22.9,13.9,0000.8,0011.82,0007.67,0007.23
2023-03-08 02:32:00,,0827.3,5.00,0.00,21.4,19.5,00.0,30.5,22.8,14.0,0000.6,0011.83,0007.66,0007.23
2023-03-08 02:33:00,,0827.4,4.99,0.00,21.4,19.4,00.0,30.4,22.7,14.1,0000.3,0011.11,0007.70,0007.25
2023-03-08 02:34:00,,0827.3,5.02,0.00,21.3,19.7,00.0,30.4,22.8,14.1,-000.1,0011.14,0007.76,0007.28
2023-03-08 02:35:00,,0827.1,5.04,0.00,21.4,21.0,00.0,30.4,23.2,14.2,-000.5,0011.27,0007.79,0007.30
2023-03-08 02:36:00,,0827.2,5.00,0.00,21.6,22.1,00.0,30.4,23.5,14.2,-001.2,0011.40,0007.82,0007.32
2023-03-08 02:37:00,,0827.1,4.99,0.00,21.7,22.6,00.0,30.4,23.7,14.2,-001.5,0011.37,0007.79,0007.32
2023-03-08 02:38:00,,0827.2,5.01,0.00,21.8,21.9,00.0,30.5,23.6,14.2,-001.8,0011.45,0007.79,0007.33
2023-03-08 02:39:00,,0827.1,5.00,0.00,21.7,21.2,00.0,30.5,23.3,14.3,-001.8,0012.71,0007.79,0007.33
2023-03-08 02:40:00,,0827.1,5.00,0.00,21.7,20.7,00.0,30.5,23.1,14.4,-001.7,0013.03,0007.79,0007.33
2023-03-08 02:41:00,,0827.1,5.00,0.00,21.6,20.2,00.0,30.5,23.0,14.4,-001.9,0012.52,0007.80,0007.33
2023-03-08 02:42:00,,0827.1,4.99,0.00,21.5,19.9,00.0,30.4,22.9,14.3,-001.5,0012.25,0007.79,0007.33
2023-03-08 02:43:00,,0827.2,5.00,0.00,21.5,19.6,00.0,30.4,22.8,14.3,-001.4,0012.16,0007.80,0007.34
2023-03-08 02:44:00,,0827.2,5.00,0.00,21.4,19.4,00.0,30.4,22.7,14.4,-001.2,0012.11,0007.80,0007.35
2023-03-08 02:45:00,,0827.2,4.99,0.00,21.3,19.3,00.0,30.3,22.6,14.4,-001.2,0012.02,0007.77,0007.35
2023-03-08 02:46:00,,0827.2,5.00,0.00,21.2,19.1,00.0,30.3,22.6,14.5,-001.2,0011.90,0007.75,0007.36
2023-03-08 02:47:00,,0827.2,5.03,0.00,21.2,19.8,00.0,30.2,22.7,14.6,-001.2,0011.77,0007.74,0007.36
2023-03-08 02:48:00,,0827.2,4.99,0.00,21.3,21.2,00.0,30.2,23.1,14.5,-001.6,0011.80,0007.77,0007.38
2023-03-08 02:49:00,,0827.2,4.98,0.00,21.5,22.2,00.0,30.3,23.4,14.4,-001.9,0011.77,0007.80,0007.39
2023-03-08 02:50:00,,0827.2,5.00,0.00,21.6,22.5,00.0,30.3,23.6,14.3,-002.1,0010.55,0007.82,0007.40
2023-03-08 02:51:00,,0827.2,4.98,0.00,21.7,21.8,00.0,30.3,23.5,14.3,-002.1,0010.28,0007.84,0007.41
2023-03-08 02:52:00,,0827.2,5.01,0.00,21.6,21.2,00.0,30.4,23.3,14.4,-002.2,0010.28,0007.85,0007.42
2023-03-08 02:53:00,,0827.2,4.99,0.00,21.6,20.6,00.0,30.4,23.1,14.4,-002.0,0010.38,0007.89,0007.45
2023-03-08 02:54:00,,0827.2,5.00,0.00,21.5,20.1,00.0,30.3,22.9,14.5,-001.8,0010.41,0007.92,0007.48
2023-03-08 02:55:00,,0827.2,5.01,0.00,21.4,19.8,00.0,30.3,22.8,14.4,-001.5,0010.37,0007.91,0007.49
2023-03-08 02:56:00,,0827.2,4.96,0.00,21.4,19.5,00.0,30.3,22.8,14.4,-000.9,0010.28,0007.89,0007.50
2023-03-08 02:57:00,,0827.2,4.97,0.00,21.3,19.4,00.0,30.3,22.8,14.3,-000.8,0010.31,0007.91,0007.48
2023-03-08 02:58:00,,0827.2,5.00,0.00,21.3,19.3,00.0,30.3,22.7,14.3,-001.0,0010.27,0007.88,0007.45
2023-03-08 02:59:00,,0827.2,4.96,0.00,21.3,19.2,00.0,30.3,22.7,14.4,-000.6,0010.25,0007.85,0007.43
